| time (UTC) | temp F | wind direction | speed MPH | gust MPH | rain 1hr in | rain 24hr in | rain mn in | humidity % | barometer mb |
| 20260505222510 | 30 | 0 | 0.0 | 0.0 | 0.00 | 0.05 | 0.05 | 82 | 1018.3 |
| 20260505222009 | 30 | 0 | 0.0 | 0.0 | 0.00 | 0.05 | 0.05 | 81 | 1018.2 |
| 20260505221530 | 30 | 0 | 0.0 | 0.0 | 0.00 | 0.05 | 0.05 | 81 | 1018.3 |
| 20260505221008 | 31 | 0 | 0.0 | 0.0 | 0.00 | 0.05 | 0.05 | 81 | 1018.3 |
| 20260505220510 | 31 | 0 | 0.0 | 0.0 | 0.00 | 0.05 | 0.05 | 82 | 1018.4 |
| 20260505220037 | 31 | 0 | 0.0 | 0.0 | 0.00 | 0.05 | 0.05 | 81 | 1018.4 |
| 20260505215512 | 31 | 0 | 0.0 | 0.0 | 0.00 | 0.06 | 0.05 | 81 | 1018.4 |
| 20260505215010 | 31 | 0 | 0.0 | 0.0 | 0.00 | 0.06 | 0.05 | 80 | 1018.3 |
| 20260505214547 | 31 | 0 | 0.0 | 0.0 | 0.00 | 0.06 | 0.05 | 81 | 1018.2 |
| 20260505214010 | 32 | 0 | 0.0 | 0.0 | 0.00 | 0.06 | 0.05 | 80 | 1018.2 |
| 20260505213510 | 32 | 0 | 0.0 | 0.0 | 0.00 | 0.06 | 0.05 | 80 | 1018.2 |
| 20260505213048 | 32 | 0 | 0.0 | 0.0 | 0.00 | 0.06 | 0.05 | 80 | 1018.2 |
| 20260505212510 | 32 | 0 | 0.0 | 0.0 | 0.00 | 0.06 | 0.05 | 80 | 1018.1 |
| 20260505212012 | 32 | 0 | 0.0 | 0.0 | 0.00 | 0.06 | 0.05 | 80 | 1018.2 |
| 20260505211530 | 32 | 0 | 0.0 | 0.0 | 0.00 | 0.06 | 0.05 | 80 | 1018.2 |
| 20260505211010 | 33 | 0 | 0.0 | 0.0 | 0.00 | 0.06 | 0.05 | 80 | 1018.2 |
| 20260505210508 | 33 | 0 | 0.0 | 0.0 | 0.00 | 0.06 | 0.05 | 80 | 1018.1 |
| 20260505210031 | 33 | 0 | 0.0 | 0.0 | 0.00 | 0.06 | 0.05 | 80 | 1018.1 |
| 20260505205515 | 33 | 0 | 0.0 | 0.0 | 0.00 | 0.06 | 0.05 | 80 | 1018.1 |
| 20260505205016 | 33 | 0 | 0.0 | 0.0 | 0.00 | 0.06 | 0.05 | 79 | 1018.1 |
| 20260505204532 | 33 | 0 | 0.0 | 0.0 | 0.00 | 0.06 | 0.05 | 79 | 1018.0 |
| 20260505204010 | 33 | 0 | 0.0 | 0.0 | 0.00 | 0.06 | 0.05 | 78 | 1018.1 |
| 20260505203514 | 33 | 0 | 0.0 | 0.0 | 0.00 | 0.06 | 0.05 | 77 | 1018.1 |
| 20260505203027 | 34 | 0 | 0.0 | 0.0 | 0.00 | 0.06 | 0.05 | 77 | 1018.0 |
| 20260505202509 | 34 | 0 | 0.0 | 1.0 | 0.00 | 0.06 | 0.05 | 76 | 1017.9 |
| 20260505202011 | 35 | 0 | 0.0 | 1.0 | 0.00 | 0.06 | 0.05 | 76 | 1018.0 |
| 20260505201543 | 35 | 0 | 0.0 | 3.0 | 0.00 | 0.06 | 0.05 | 75 | 1018.0 |
| 20260505201008 | 36 | 0 | 0.0 | 3.0 | 0.00 | 0.06 | 0.05 | 75 | 1017.9 |
| 20260505200512 | 36 | 0 | 0.0 | 3.0 | 0.00 | 0.06 | 0.05 | 73 | 1017.8 |
| 20260505200031 | 37 | 0 | 0.0 | 0.0 | 0.00 | 0.06 | 0.05 | 72 | 1017.8 |
| 20260505195511 | 38 | 0 | 0.0 | 0.0 | 0.00 | 0.06 | 0.05 | 70 | 1018.0 |
| 20260505195010 | 39 | 0 | 0.0 | 0.0 | 0.00 | 0.06 | 0.05 | 69 | 1017.8 |
| 20260505194530 | 40 | 0 | 0.0 | 0.0 | 0.00 | 0.06 | 0.05 | 69 | 1017.8 |
| 20260505194017 | 40 | 0 | 0.0 | 0.0 | 0.00 | 0.06 | 0.05 | 68 | 1017.8 |
| 20260505193509 | 41 | 0 | 0.0 | 0.0 | 0.00 | 0.06 | 0.05 | 67 | 1017.7 |
| 20260505193042 | 41 | 0 | 0.0 | 0.0 | 0.00 | 0.06 | 0.05 | 67 | 1017.7 |
| 20260505192511 | 42 | 0 | 0.0 | 1.0 | 0.00 | 0.06 | 0.05 | 66 | 1017.7 |
| 20260505192009 | 42 | 0 | 0.0 | 2.0 | 0.00 | 0.06 | 0.05 | 65 | 1017.6 |
| 20260505191527 | 42 | 0 | 0.0 | 2.0 | 0.00 | 0.06 | 0.05 | 64 | 1017.6 |
| 20260505191014 | 43 | 0 | 0.0 | 4.0 | 0.00 | 0.06 | 0.05 | 64 | 1017.5 |
| 20260505190507 | 43 | 0 | 0.0 | 8.0 | 0.00 | 0.06 | 0.05 | 63 | 1017.5 |
| 20260505190032 | 44 | 0 | 0.0 | 8.0 | 0.00 | 0.06 | 0.05 | 62 | 1017.5 |
| 20260505185515 | 44 | 0 | 0.0 | 5.0 | 0.00 | 0.07 | 0.05 | 60 | 1017.5 |
| 20260505185009 | 44 | 0 | 0.0 | 4.0 | 0.00 | 0.07 | 0.05 | 59 | 1017.6 |
| 20260505184530 | 44 | 0 | 0.0 | 3.0 | 0.00 | 0.07 | 0.05 | 58 | 1017.5 |
| 20260505184010 | 45 | 0 | 0.0 | 2.0 | 0.00 | 0.07 | 0.05 | 58 | 1017.5 |
| 20260505183510 | 45 | 0 | 0.0 | 3.0 | 0.00 | 0.07 | 0.05 | 57 | 1017.5 |
| 20260505183044 | 45 | 0 | 0.0 | 3.0 | 0.00 | 0.07 | 0.05 | 56 | 1017.6 |
| 20260505182509 | 45 | 0 | 0.0 | 8.0 | 0.00 | 0.07 | 0.05 | 56 | 1017.4 |
| 20260505182016 | 45 | 0 | 0.0 | 8.0 | 0.00 | 0.07 | 0.05 | 55 | 1017.4 |
| 20260505181530 | 46 | 0 | 0.0 | 8.0 | 0.00 | 0.07 | 0.05 | 55 | 1017.4 |
| 20260505181016 | 46 | 333 | 0.0 | 5.0 | 0.00 | 0.07 | 0.05 | 54 | 1017.4 |
| 20260505180510 | 46 | 352 | 0.0 | 6.0 | 0.00 | 0.07 | 0.05 | 54 | 1017.4 |
| 20260505180035 | 46 | 350 | 0.0 | 7.0 | 0.00 | 0.07 | 0.05 | 53 | 1017.4 |
| 20260505175512 | 46 | 0 | 0.0 | 7.0 | 0.00 | 0.07 | 0.05 | 55 | 1017.4 |
| 20260505175009 | 47 | 74 | 2.0 | 7.0 | 0.00 | 0.07 | 0.05 | 53 | 1017.4 |
| 20260505174536 | 47 | 67 | 1.0 | 5.0 | 0.00 | 0.07 | 0.05 | 52 | 1017.4 |
| 20260505174010 | 47 | 0 | 0.0 | 4.0 | 0.00 | 0.07 | 0.05 | 52 | 1017.4 |
| 20260505173509 | 47 | 0 | 0.0 | 5.0 | 0.00 | 0.07 | 0.05 | 52 | 1017.4 |
| 20260505173036 | 47 | 323 | 1.0 | 5.0 | 0.00 | 0.07 | 0.05 | 52 | 1017.4 |
| 20260505172508 | 47 | 80 | 1.0 | 5.0 | 0.00 | 0.07 | 0.05 | 50 | 1017.4 |
| 20260505172016 | 46 | 0 | 0.0 | 4.0 | 0.00 | 0.07 | 0.05 | 52 | 1017.5 |
| 20260505171533 | 46 | 0 | 0.0 | 5.0 | 0.00 | 0.07 | 0.05 | 52 | 1017.4 |
| 20260505171011 | 46 | 0 | 0.0 | 5.0 | 0.00 | 0.07 | 0.05 | 53 | 1017.4 |
| 20260505170516 | 46 | 0 | 0.0 | 4.0 | 0.00 | 0.07 | 0.05 | 55 | 1017.4 |
| 20260505170030 | 46 | 59 | 0.0 | 12.0 | 0.00 | 0.07 | 0.05 | 54 | 1017.4 |
| 20260505165512 | 46 | 0 | 0.0 | 12.0 | 0.00 | 0.07 | 0.05 | 52 | 1017.4 |
| 20260505165100 | 46 | 0 | 0.0 | 3.0 | 0.00 | 0.07 | 0.05 | 53 | 1017.4 |
| 20260505164535 | 46 | 0 | 0.0 | 9.0 | 0.00 | 0.07 | 0.05 | 52 | 1017.3 |
| 20260505164008 | 46 | 0 | 0.0 | 9.0 | 0.00 | 0.07 | 0.05 | 53 | 1017.4 |
| 20260505163508 | 46 | 349 | 1.0 | 9.0 | 0.00 | 0.07 | 0.05 | 52 | 1017.5 |
| 20260505163030 | 46 | 37 | 1.0 | 5.0 | 0.00 | 0.07 | 0.05 | 54 | 1017.4 |
| 20260505162508 | 46 | 0 | 0.0 | 3.0 | 0.00 | 0.07 | 0.05 | 55 | 1017.5 |
| 20260505162007 | 46 | 0 | 0.0 | 5.0 | 0.00 | 0.07 | 0.05 | 57 | 1017.5 |
| 20260505161528 | 46 | 0 | 0.0 | 5.0 | 0.00 | 0.07 | 0.05 | 60 | 1017.5 |
| 20260505161008 | 46 | 91 | 1.0 | 6.0 | 0.00 | 0.07 | 0.05 | 58 | 1017.5 |
| 20260505160511 | 46 | 5 | 0.0 | 8.0 | 0.00 | 0.07 | 0.05 | 58 | 1017.5 |
| 20260505153031 | 45 | 0 | 0.0 | 8.0 | 0.00 | 0.07 | 0.05 | 57 | 1017.6 |
| 20260505152512 | 46 | 319 | 1.0 | 8.0 | 0.00 | 0.07 | 0.05 | 56 | 1017.6 |
| 20260505152018 | 46 | 0 | 0.0 | 8.0 | 0.00 | 0.07 | 0.05 | 58 | 1017.6 |
| 20260505151528 | 46 | 0 | 0.0 | 7.0 | 0.00 | 0.07 | 0.05 | 57 | 1017.6 |
| 20260505151013 | 46 | 0 | 0.0 | 5.0 | 0.00 | 0.07 | 0.05 | 58 | 1017.6 |
| 20260505150517 | 46 | 0 | 0.0 | 4.0 | 0.00 | 0.07 | 0.05 | 58 | 1017.6 |
| 20260505140514 | 45 | 0 | 0.0 | 10.0 | 0.00 | 0.07 | 0.05 | 64 | 1017.4 |
| 20260505125007 | 46 | 0 | 0.0 | 5.0 | 0.00 | 0.07 | 0.05 | 66 | 1017.2 |
| 20260505124528 | 46 | 60 | 1.0 | 7.0 | 0.00 | 0.07 | 0.05 | 68 | 1017.2 |
| 20260505124011 | 46 | 0 | 2.0 | 7.0 | 0.00 | 0.07 | 0.05 | 67 | 1017.2 |
| 20260505123511 | 46 | 0 | 0.0 | 4.0 | 0.00 | 0.07 | 0.05 | 68 | 1017.1 |
| 20260505123044 | 46 | 0 | 0.0 | 5.0 | 0.00 | 0.07 | 0.05 | 74 | 1017.2 |
| 20260505122508 | 45 | 0 | 1.0 | 5.0 | 0.00 | 0.07 | 0.05 | 73 | 1017.3 |
| 20260505122009 | 45 | 0 | 0.0 | 8.0 | 0.00 | 0.07 | 0.05 | 74 | 1017.5 |
| 20260505121534 | 44 | 0 | 1.0 | 9.0 | 0.00 | 0.07 | 0.05 | 76 | 1017.5 |
| 20260505121011 | 44 | 0 | 1.0 | 9.0 | 0.00 | 0.07 | 0.05 | 74 | 1017.4 |
| 20260505120515 | 44 | 0 | 1.0 | 8.0 | 0.00 | 0.07 | 0.05 | 75 | 1017.5 |
| 20260505120041 | 44 | 82 | 0.0 | 12.0 | 0.00 | 0.07 | 0.05 | 73 | 1017.5 |
| 20260505115512 | 45 | 305 | 2.0 | 12.0 | 0.00 | 0.07 | 0.05 | 70 | 1017.3 |
| 20260505115016 | 46 | 0 | 2.0 | 12.0 | 0.00 | 0.07 | 0.05 | 71 | 1017.2 |
| 20260505114541 | 46 | 0 | 0.0 | 12.0 | 0.00 | 0.07 | 0.05 | 68 | 1017.1 |
| 20260505114010 | 46 | 32 | 0.0 | 12.0 | 0.00 | 0.07 | 0.05 | 70 | 1017.2 |
| 20260505113508 | 46 | 339 | 1.0 | 8.0 | 0.00 | 0.07 | 0.05 | 70 | 1017.1 |
| 20260505113029 | 46 | 342 | 1.0 | 9.0 | 0.00 | 0.07 | 0.05 | 73 | 1017.2 |
| 20260505112511 | 45 | 74 | 0.0 | 9.0 | 0.00 | 0.07 | 0.05 | 74 | 1017.2 |
| 20260505112011 | 45 | 73 | 0.0 | 8.0 | 0.00 | 0.07 | 0.05 | 77 | 1017.2 |
| 20260505111528 | 43 | 0 | 1.0 | 9.0 | 0.00 | 0.07 | 0.05 | 77 | 1017.2 |
| 20260505111011 | 43 | 0 | 2.0 | 9.0 | 0.00 | 0.07 | 0.05 | 78 | 1017.2 |
| 20260505110511 | 42 | 83 | 0.0 | 5.0 | 0.00 | 0.07 | 0.05 | 81 | 1017.3 |
| 20260505102010 | 43 | 0 | 0.0 | 12.0 | 0.01 | 0.07 | 0.05 | 73 | 1017.1 |
| 20260505101526 | 43 | 280 | 0.0 | 11.0 | 0.01 | 0.07 | 0.05 | 72 | 1017.1 |
| 20260505101009 | 43 | 341 | 2.0 | 11.0 | 0.01 | 0.07 | 0.05 | 73 | 1016.9 |
| 20260505100512 | 43 | 336 | 2.0 | 11.0 | 0.01 | 0.07 | 0.05 | 73 | 1017.1 |
| 20260505100031 | 44 | 326 | 1.0 | 11.0 | 0.01 | 0.07 | 0.05 | 75 | 1017.0 |
| 20260505095510 | 44 | 34 | 1.0 | 8.0 | 0.01 | 0.07 | 0.05 | 78 | 1016.9 |
| 20260505095015 | 43 | 0 | 1.0 | 6.0 | 0.01 | 0.07 | 0.05 | 82 | 1016.7 |
| 20260505094530 | 42 | 0 | 0.0 | 4.0 | 0.00 | 0.06 | 0.04 | 84 | 1016.9 |
| 20260505094010 | 42 | 0 | 0.0 | 13.0 | 0.00 | 0.06 | 0.04 | 81 | 1016.8 |
| 20260505093511 | 42 | 59 | 0.0 | 13.0 | 0.00 | 0.06 | 0.04 | 80 | 1016.8 |
| 20260505093035 | 42 | 350 | 4.0 | 13.0 | 0.00 | 0.06 | 0.04 | 78 | 1016.8 |
| 20260505092512 | 43 | 0 | 2.0 | 10.0 | 0.00 | 0.06 | 0.04 | 77 | 1016.6 |
| 20260505092013 | 43 | 348 | 0.0 | 8.0 | 0.00 | 0.06 | 0.04 | 77 | 1016.7 |
| 20260505091540 | 42 | 0 | 0.0 | 8.0 | 0.00 | 0.06 | 0.04 | 78 | 1016.6 |
| 20260505091012 | 42 | 62 | 1.0 | 8.0 | 0.00 | 0.06 | 0.04 | 79 | 1016.6 |
| 20260505090509 | 42 | 352 | 0.0 | 10.0 | 0.00 | 0.06 | 0.04 | 80 | 1016.6 |
| 20260505090043 | 42 | 0 | 1.0 | 10.0 | 0.00 | 0.06 | 0.04 | 81 | 1016.4 |
| 20260505085510 | 42 | 349 | 1.0 | 10.0 | 0.00 | 0.06 | 0.04 | 80 | 1016.4 |
| 20260505085012 | 42 | 69 | 1.0 | 11.0 | 0.00 | 0.06 | 0.04 | 81 | 1016.2 |
| 20260505084528 | 41 | 57 | 2.0 | 14.0 | 0.01 | 0.06 | 0.04 | 81 | 1016.2 |
| 20260505084012 | 41 | 323 | 0.0 | 14.0 | 0.01 | 0.06 | 0.04 | 83 | 1016.1 |
| 20260505083517 | 41 | 0 | 1.0 | 14.0 | 0.01 | 0.06 | 0.04 | 84 | 1016.1 |
| 20260505083028 | 41 | 335 | 2.0 | 13.0 | 0.01 | 0.06 | 0.04 | 84 | 1016.1 |
| 20260505082511 | 41 | 0 | 2.0 | 11.0 | 0.02 | 0.06 | 0.04 | 85 | 1016.2 |
| 20260505082008 | 40 | 336 | 1.0 | 10.0 | 0.02 | 0.06 | 0.04 | 86 | 1016.1 |
| 20260505081538 | 40 | 360 | 1.0 | 8.0 | 0.02 | 0.06 | 0.04 | 87 | 1016.0 |
| 20260505081009 | 40 | 0 | 0.0 | 8.0 | 0.02 | 0.06 | 0.04 | 87 | 1016.1 |
| 20260505080509 | 40 | 0 | 0.0 | 8.0 | 0.02 | 0.06 | 0.04 | 86 | 1016.1 |
| 20260505080046 | 40 | 77 | 1.0 | 8.0 | 0.02 | 0.06 | 0.04 | 86 | 1016.0 |
| 20260505075511 | 40 | 0 | 0.0 | 7.0 | 0.03 | 0.06 | 0.04 | 86 | 1015.9 |
| 20260505075011 | 41 | 82 | 1.0 | 12.0 | 0.03 | 0.06 | 0.04 | 86 | 1015.8 |
| 20260505074530 | 41 | 0 | 1.0 | 12.0 | 0.03 | 0.05 | 0.03 | 86 | 1015.7 |
| 20260505074011 | 41 | 81 | 0.0 | 9.0 | 0.03 | 0.05 | 0.03 | 86 | 1015.7 |
| 20260505073512 | 41 | 0 | 0.0 | 9.0 | 0.03 | 0.05 | 0.03 | 86 | 1015.6 |
| 20260505073034 | 41 | 92 | 1.0 | 10.0 | 0.03 | 0.05 | 0.03 | 85 | 1015.5 |
| 20260505072509 | 41 | 71 | 2.0 | 10.0 | 0.02 | 0.04 | 0.02 | 85 | 1015.5 |
| 20260505072015 | 42 | 69 | 1.0 | 9.0 | 0.02 | 0.04 | 0.02 | 85 | 1015.4 |
| 20260505071529 | 42 | 0 | 0.0 | 6.0 | 0.02 | 0.04 | 0.02 | 85 | 1015.3 |
| 20260505071009 | 42 | 0 | 0.0 | 6.0 | 0.02 | 0.04 | 0.02 | 85 | 1015.4 |
| 20260505070511 | 41 | 16 | 0.0 | 3.0 | 0.02 | 0.04 | 0.02 | 84 | 1015.3 |
| 20260505070028 | 41 | 0 | 0.0 | 6.0 | 0.01 | 0.03 | 0.01 | 83 | 1015.2 |
| 20260505065510 | 42 | 0 | 0.0 | 6.0 | 0.01 | 0.03 | 0.01 | 82 | 1015.1 |
| 20260505065011 | 42 | 41 | 0.0 | 5.0 | 0.01 | 0.03 | 0.01 | 82 | 1015.0 |
| 20260505064529 | 42 | 302 | 0.0 | 7.0 | 0.00 | 0.02 | 0.00 | 82 | 1015.0 |
| 20260505064013 | 42 | 0 | 0.0 | 7.0 | 0.00 | 0.02 | 0.00 | 81 | 1015.0 |
| 20260505063518 | 42 | 293 | 0.0 | 7.0 | 0.00 | 0.02 | 0.00 | 81 | 1014.9 |
| 20260505063028 | 42 | 0 | 0.0 | 5.0 | 0.00 | 0.02 | 0.00 | 81 | 1014.9 |
| 20260505062512 | 42 | 0 | 0.0 | 2.0 | 0.00 | 0.02 | 0.00 | 82 | 1014.7 |
| 20260505062012 | 42 | 0 | 0.0 | 2.0 | 0.00 | 0.02 | 0.00 | 81 | 1014.7 |
| 20260505061529 | 42 | 0 | 0.0 | 8.0 | 0.00 | 0.02 | 0.00 | 81 | 1014.5 |
| 20260505061015 | 42 | 0 | 0.0 | 8.0 | 0.00 | 0.02 | 0.00 | 80 | 1014.5 |
| 20260505060511 | 42 | 0 | 0.0 | 7.0 | 0.00 | 0.02 | 0.00 | 80 | 1014.4 |
| 20260505060029 | 42 | 0 | 0.0 | 9.0 | 0.00 | 0.02 | 0.00 | 81 | 1014.3 |
| 20260505055515 | 42 | 300 | 1.0 | 9.0 | 0.00 | 0.02 | 0.00 | 81 | 1014.2 |
| 20260505055012 | 41 | 0 | 1.0 | 6.0 | 0.00 | 0.02 | 0.00 | 81 | 1014.2 |
| 20260505054530 | 41 | 274 | 0.0 | 6.0 | 0.00 | 0.02 | 0.00 | 83 | 1014.0 |
| 20260505054011 | 41 | 0 | 0.0 | 2.0 | 0.00 | 0.02 | 0.00 | 83 | 1014.0 |
| 20260505053511 | 41 | 0 | 0.0 | 1.0 | 0.00 | 0.02 | 0.00 | 84 | 1014.0 |
| 20260505053030 | 40 | 0 | 0.0 | 6.0 | 0.00 | 0.02 | 0.00 | 84 | 1014.0 |
| 20260505052517 | 39 | 265 | 0.0 | 6.0 | 0.00 | 0.02 | 0.00 | 84 | 1014.0 |
| 20260505052010 | 39 | 0 | 0.0 | 0.0 | 0.00 | 0.02 | 0.00 | 84 | 1014.1 |
| 20260505051528 | 39 | 0 | 0.0 | 2.0 | 0.00 | 0.02 | 0.00 | 85 | 1014.0 |
| 20260505051011 | 39 | 0 | 0.0 | 2.0 | 0.00 | 0.02 | 0.00 | 85 | 1014.0 |
| 20260505050513 | 39 | 0 | 0.0 | 2.0 | 0.00 | 0.02 | 0.00 | 85 | 1014.0 |
| 20260505041545 | 38 | 0 | 0.0 | 0.0 | 0.00 | 0.02 | 0.00 | 85 | 1013.8 |
| 20260505041011 | 38 | 0 | 0.0 | 0.0 | 0.00 | 0.02 | 0.00 | 83 | 1013.8 |
| 20260505040513 | 38 | 0 | 0.0 | 0.0 | 0.00 | 0.02 | 0.00 | 82 | 1013.9 |
| 20260505040030 | 38 | 0 | 0.0 | 0.0 | 0.00 | 0.02 | 0.00 | 81 | 1013.8 |
| 20260505035511 | 39 | 0 | 0.0 | 0.0 | 0.00 | 0.02 | 0.00 | 82 | 1013.8 |
| 20260505035011 | 39 | 0 | 0.0 | 0.0 | 0.00 | 0.02 | 0.00 | 81 | 1013.8 |
| 20260505034528 | 40 | 0 | 0.0 | 0.0 | 0.00 | 0.02 | 0.00 | 81 | 1013.8 |
| 20260505034013 | 40 | 0 | 0.0 | 0.0 | 0.00 | 0.02 | 0.00 | 82 | 1013.7 |
| 20260505033509 | 40 | 0 | 0.0 | 0.0 | 0.00 | 0.02 | 0.00 | 81 | 1013.7 |
| 20260505033030 | 41 | 0 | 0.0 | 0.0 | 0.00 | 0.02 | 0.00 | 81 | 1013.6 |
| 20260505032514 | 41 | 0 | 0.0 | 0.0 | 0.00 | 0.02 | 0.00 | 82 | 1013.6 |
| 20260505032011 | 41 | 0 | 0.0 | 0.0 | 0.00 | 0.02 | 0.00 | 82 | 1013.7 |
| 20260505031536 | 41 | 0 | 0.0 | 0.0 | 0.00 | 0.02 | 0.00 | 82 | 1013.8 |
| 20260505031011 | 42 | 0 | 0.0 | 0.0 | 0.00 | 0.02 | 0.00 | 83 | 1013.7 |
| 20260505030512 | 42 | 0 | 0.0 | 0.0 | 0.00 | 0.02 | 0.00 | 83 | 1013.7 |
| 20260505030035 | 42 | 0 | 0.0 | 0.0 | 0.00 | 0.02 | 0.00 | 83 | 1013.6 |
| 20260505025511 | 42 | 0 | 0.0 | 0.0 | 0.00 | 0.02 | 0.00 | 83 | 1013.7 |
| 20260505025011 | 42 | 0 | 0.0 | 0.0 | 0.00 | 0.02 | 0.00 | 83 | 1013.7 |
| 20260505024530 | 42 | 0 | 0.0 | 0.0 | 0.00 | 0.02 | 0.00 | 83 | 1013.7 |
| 20260505024013 | 42 | 0 | 0.0 | 0.0 | 0.00 | 0.02 | 0.00 | 84 | 1013.6 |
| 20260505023511 | 42 | 0 | 0.0 | 1.0 | 0.00 | 0.02 | 0.00 | 84 | 1013.7 |
| 20260505023036 | 42 | 0 | 0.0 | 1.0 | 0.00 | 0.02 | 0.00 | 84 | 1013.8 |
| 20260505022515 | 42 | 0 | 0.0 | 1.0 | 0.00 | 0.02 | 0.00 | 84 | 1013.8 |
| 20260505022011 | 42 | 0 | 0.0 | 3.0 | 0.00 | 0.02 | 0.00 | 84 | 1013.8 |
| 20260505021529 | 42 | 0 | 0.0 | 4.0 | 0.00 | 0.02 | 0.00 | 84 | 1013.8 |
| 20260505021008 | 42 | 287 | 0.0 | 4.0 | 0.00 | 0.02 | 0.00 | 85 | 1013.9 |
| 20260505020511 | 43 | 0 | 0.0 | 4.0 | 0.00 | 0.02 | 0.00 | 85 | 1013.9 |
| 20260505020034 | 42 | 0 | 0.0 | 2.0 | 0.00 | 0.02 | 0.00 | 86 | 1013.8 |
| 20260505015517 | 42 | 0 | 0.0 | 3.0 | 0.00 | 0.02 | 0.00 | 87 | 1013.9 |
| 20260505015011 | 42 | 287 | 0.0 | 3.0 | 0.00 | 0.02 | 0.00 | 87 | 1013.9 |
| 20260505014529 | 42 | 0 | 0.0 | 3.0 | 0.00 | 0.02 | 0.00 | 87 | 1013.8 |
| 20260505014011 | 42 | 0 | 0.0 | 0.0 | 0.00 | 0.02 | 0.00 | 87 | 1013.8 |
| 20260505013511 | 42 | 0 | 0.0 | 0.0 | 0.00 | 0.02 | 0.00 | 87 | 1013.6 |
| 20260505013028 | 42 | 0 | 0.0 | 0.0 | 0.00 | 0.02 | 0.00 | 88 | 1013.6 |
| 20260505012514 | 41 | 0 | 0.0 | 0.0 | 0.00 | 0.02 | 0.00 | 88 | 1013.6 |
| 20260505012031 | 41 | 0 | 0.0 | 0.0 | 0.00 | 0.02 | 0.00 | 88 | 1013.7 |
| 20260505011530 | 41 | 0 | 0.0 | 0.0 | 0.00 | 0.02 | 0.00 | 87 | 1013.7 |
| 20260505011011 | 41 | 0 | 0.0 | 0.0 | 0.00 | 0.02 | 0.00 | 87 | 1013.7 |
| 20260505010508 | 40 | 0 | 0.0 | 0.0 | 0.00 | 0.02 | 0.00 | 86 | 1013.7 |
| 20260505010026 | 40 | 0 | 0.0 | 0.0 | 0.00 | 0.02 | 0.00 | 86 | 1013.6 |
| 20260505005511 | 40 | 0 | 0.0 | 0.0 | 0.00 | 0.02 | 0.00 | 86 | 1013.5 |
| 20260505005010 | 40 | 0 | 0.0 | 0.0 | 0.00 | 0.02 | 0.00 | 86 | 1013.4 |
| 20260505004536 | 40 | 0 | 0.0 | 0.0 | 0.00 | 0.02 | 0.00 | 85 | 1013.5 |
| 20260505004007 | 40 | 0 | 0.0 | 0.0 | 0.00 | 0.02 | 0.00 | 84 | 1013.5 |
| 20260505003512 | 40 | 0 | 0.0 | 0.0 | 0.00 | 0.02 | 0.00 | 84 | 1013.5 |
| 20260505003029 | 41 | 0 | 0.0 | 0.0 | 0.00 | 0.02 | 0.00 | 85 | 1013.5 |
| 20260505002510 | 40 | 0 | 0.0 | 0.0 | 0.00 | 0.02 | 0.00 | 84 | 1013.5 |
| 20260505002008 | 41 | 0 | 0.0 | 0.0 | 0.00 | 0.02 | 0.00 | 84 | 1013.5 |
| 20260505001527 | 41 | 0 | 0.0 | 0.0 | 0.00 | 0.02 | 0.00 | 84 | 1013.5 |
| 20260505001010 | 41 | 0 | 0.0 | 0.0 | 0.00 | 0.02 | 0.00 | 84 | 1013.4 |
| 20260505000509 | 41 | 0 | 0.0 | 0.0 | 0.00 | 0.02 | 0.00 | 84 | 1013.4 |
| 20260505000031 | 41 | 0 | 0.0 | 0.0 | 0.00 | 0.02 | 0.00 | 84 | 1013.5 |
| 20260504235507 | 41 | 0 | 0.0 | 0.0 | 0.00 | 0.02 | 0.00 | 84 | 1013.6 |
| 20260504235010 | 41 | 0 | 0.0 | 0.0 | 0.00 | 0.02 | 0.00 | 85 | 1013.6 |
| 20260504234528 | 42 | 0 | 0.0 | 0.0 | 0.00 | 0.02 | 0.00 | 84 | 1013.7 |
| 20260504234008 | 42 | 0 | 0.0 | 0.0 | 0.00 | 0.02 | 0.00 | 83 | 1013.6 |
| 20260504233511 | 42 | 0 | 0.0 | 0.0 | 0.00 | 0.02 | 0.00 | 84 | 1013.6 |
| 20260504233032 | 42 | 0 | 0.0 | 0.0 | 0.00 | 0.02 | 0.00 | 83 | 1013.7 |
| 20260504232508 | 42 | 0 | 0.0 | 0.0 | 0.00 | 0.02 | 0.00 | 83 | 1013.6 |
| 20260504232011 | 42 | 0 | 0.0 | 0.0 | 0.00 | 0.02 | 0.00 | 83 | 1013.8 |
| 20260504231527 | 42 | 0 | 0.0 | 0.0 | 0.00 | 0.02 | 0.00 | 83 | 1013.7 |
| 20260504231007 | 43 | 0 | 0.0 | 0.0 | 0.00 | 0.02 | 0.00 | 83 | 1013.6 |
| 20260504230507 | 43 | 0 | 0.0 | 0.0 | 0.00 | 0.02 | 0.00 | 83 | 1013.6 |
| 20260504230027 | 43 | 0 | 0.0 | 0.0 | 0.00 | 0.02 | 0.00 | 83 | 1013.6 |
| 20260504225510 | 43 | 0 | 0.0 | 0.0 | 0.00 | 0.02 | 0.02 | 82 | 1013.5 |
| 20260504225009 | 43 | 0 | 0.0 | 0.0 | 0.00 | 0.02 | 0.02 | 82 | 1013.6 |
| 20260504224529 | 43 | 0 | 0.0 | 0.0 | 0.00 | 0.02 | 0.02 | 82 | 1013.6 |
| 20260504224008 | 44 | 0 | 0.0 | 0.0 | 0.01 | 0.02 | 0.02 | 81 | 1013.7 |
| 20260504223510 | 44 | 0 | 0.0 | 0.0 | 0.01 | 0.02 | 0.02 | 81 | 1013.7 |
| 20260504223030 | 44 | 0 | 0.0 | 0.0 | 0.01 | 0.02 | 0.02 | 81 | 1013.7 |